Bemidji, MN

1:45 PM CST on December 14, 2017 (GMT -0600)
Bemidji-Beltrami County

Weather History for KBJI - March, 2014

Change the Weather History Date:

Thursday, March 6, 2014

  Actual Average Record
Temperature  
Mean Temperature 22 °F -  
Max Temperature 30 °F 29 °F 56 °F (2016)
Min Temperature 14 °F 3 °F -31 °F (1955)
Degree Days  
Heating Degree Days 43    
Moisture  
Dew Point 18 °F    
Average Humidity 81    
Maximum Humidity 95    
Minimum Humidity 67    
Precipitation  
Precipitation 0.00 in - - ()
Sea Level Pressure  
Sea Level Pressure 29.83 in    
Wind  
Wind Speed 13 mph (South)    
Max Wind Speed 22 mph    
Max Gust Speed 28 mph    
Visibility 6 miles    
Events Snow    
Averages and records for this station are not official NWS values.
T = Trace of Precipitation, MM = Missing Value Source: NWS Daily Summary

Daily Weather History Graph

Daily Weather History Graph

Search for Another Location

Airport or City:

Trip Planner

Search our weather history database for the weather conditions in past years. The results will help you decide how hot, cold, wet, or windy it might be!

Date:

Astronomy

Mar. 06, 2014 Rise Set
Actual Time 6:50 AM CST 6:12 PM CST
Civil Twilight 6:19 AM CST 6:42 PM CST
Nautical Twilight 5:44 AM CST 7:18 PM CST
Astronomical Twilight 5:08 AM CST 7:54 PM CST
Moon 9:35 AM CST (3/6) No Moon Set
Length of Visible Light 12h 23m
Length of Day
11h 21m
Waxing Crescent, 32% of the Moon is Illuminated
Mar 6
Waxing Crescent
Mar 8
First Quarter
Mar 16
Full
Mar 23
Last Quarter
Mar 30
New

Hourly Weather History & Observations

Time (CST) Temp. Windchill Dew Point Humidity Pressure Visibility Wind Dir Wind Speed Gust Speed Precip Events Conditions
12:09 AM 15.3 °F 2.0 °F 9.5 °F 78% 30.09 in 10.0 mi South 11.5 mph - N/A   Mostly Cloudy
12:29 AM 15.1 °F -0.6 °F 10.0 °F 80% 30.09 in 10.0 mi South 16.1 mph 21.9 mph N/A   Mostly Cloudy
12:49 AM 14.9 °F 0.9 °F 9.5 °F 79% 30.09 in 10.0 mi South 12.7 mph 21.9 mph N/A   Scattered Clouds
1:09 AM 14.9 °F 0.9 °F 9.5 °F 79% 30.07 in 10.0 mi South 12.7 mph - N/A   Clear
1:29 AM 14.9 °F 1.6 °F 9.7 °F 80% 30.06 in 10.0 mi South 11.5 mph - N/A   Scattered Clouds
1:48 AM 14.9 °F 0.3 °F 9.7 °F 80% 30.05 in 10.0 mi South 13.8 mph 20.7 mph N/A   Clear
2:09 AM 14.9 °F -0.3 °F 9.7 °F 80% 30.04 in 10.0 mi South 15.0 mph 23.0 mph N/A   Clear
2:29 AM 14.9 °F -0.3 °F 10.0 °F 81% 30.03 in 10.0 mi South 15.0 mph 20.7 mph N/A   Clear
2:49 AM 14.9 °F 0.9 °F 10.0 °F 81% 30.02 in 10.0 mi South 12.7 mph 21.9 mph N/A   Clear
3:09 AM 14.9 °F 0.9 °F 10.2 °F 82% 30.00 in 10.0 mi South 12.7 mph 21.9 mph N/A   Scattered Clouds
3:28 AM 15.4 °F 1.0 °F 10.4 °F 80% 29.99 in 10.0 mi South 13.8 mph - N/A   Mostly Cloudy
3:49 AM 15.8 °F 2.1 °F 10.4 °F 79% 29.98 in 10.0 mi South 12.7 mph 18.4 mph N/A   Overcast
4:09 AM 16.2 °F 2.5 °F 10.8 °F 79% 29.96 in 10.0 mi South 12.7 mph 20.7 mph N/A   Overcast
4:29 AM 16.3 °F 2.7 °F 10.9 °F 79% 29.96 in 10.0 mi South 12.7 mph 23.0 mph N/A   Overcast
4:49 AM 16.5 °F 3.6 °F 11.3 °F 80% 29.96 in 10.0 mi South 11.5 mph - N/A   Overcast
5:09 AM 16.5 °F 1.3 °F 11.7 °F 81% 29.95 in 10.0 mi South 16.1 mph 19.6 mph N/A   Mostly Cloudy
5:29 AM 16.5 °F 3.6 °F 12.0 °F 82% 29.94 in 10.0 mi South 11.5 mph - N/A   Overcast
5:48 AM 16.5 °F 1.8 °F 12.2 °F 83% 29.93 in 10.0 mi South 15.0 mph - N/A   Overcast
6:09 AM 17.1 °F 3.6 °F 13.1 °F 84% 29.92 in 10.0 mi South 12.7 mph - N/A   Overcast
6:29 AM 17.4 °F 2.4 °F 13.5 °F 84% 29.92 in 10.0 mi South 16.1 mph 20.7 mph N/A   Overcast
6:48 AM 17.8 °F 2.4 °F 14.0 °F 85% 29.90 in 7.0 mi SSE 17.3 mph 21.9 mph N/A   Overcast
7:09 AM 18.3 °F 2.6 °F 14.4 °F 85% 29.89 in 7.0 mi SSE 18.4 mph 23.0 mph N/A   Overcast
7:29 AM 18.9 °F 3.3 °F 14.7 °F 84% 29.88 in 7.0 mi SSE 18.4 mph 25.3 mph N/A   Overcast
7:48 AM 19.2 °F 2.6 °F 14.9 °F 83% 29.86 in 7.0 mi SSE 21.9 mph 27.6 mph N/A   Overcast
8:09 AM 19.9 °F 4.3 °F 15.1 °F 81% 29.85 in 7.0 mi South 19.6 mph 26.5 mph N/A   Overcast
8:29 AM 20.1 °F 6.9 °F 15.1 °F 81% 29.86 in 7.0 mi South 13.8 mph 25.3 mph N/A   Overcast
8:48 AM 20.3 °F 7.7 °F 15.3 °F 81% 29.83 in 7.0 mi South 12.7 mph 25.3 mph N/A   Overcast
9:09 AM 21.2 °F 6.8 °F 15.8 °F 80% 29.82 in 10.0 mi South 17.3 mph 23.0 mph N/A   Overcast
9:29 AM 22.1 °F 8.5 °F 16.3 °F 79% 29.81 in 7.0 mi SSE 16.1 mph - N/A   Overcast
9:48 AM 22.6 °F 7.9 °F 16.5 °F 77% 29.80 in 7.0 mi South 19.6 mph 25.3 mph N/A   Overcast
10:09 AM 23.0 °F 9.2 °F 16.9 °F 77% 29.80 in 7.0 mi South 17.3 mph 26.5 mph N/A   Overcast
10:29 AM 24.3 °F 10.8 °F 17.4 °F 75% 29.80 in 7.0 mi SSW 17.3 mph 24.2 mph N/A   Overcast
10:48 AM 25.3 °F 12.2 °F 17.6 °F 72% 29.79 in 7.0 mi South 17.3 mph 24.2 mph N/A   Mostly Cloudy
11:09 AM 26.2 °F 14.2 °F 18.1 °F 71% 29.79 in 5.0 mi South 15.0 mph 23.0 mph N/A   Haze
11:28 AM 27.1 °F 16.4 °F 18.5 °F 70% 29.78 in 5.0 mi South 12.7 mph 21.9 mph N/A   Haze
11:49 AM 28.0 °F 15.7 °F 19.0 °F 69% 29.78 in 7.0 mi SSW 17.3 mph 26.5 mph N/A   Mostly Cloudy
12:09 PM 29.1 °F 17.1 °F 19.8 °F 68% 29.78 in 5.0 mi South 17.3 mph 24.2 mph N/A   Haze
12:29 PM 29.3 °F 18.2 °F 20.1 °F 69% 29.78 in 5.0 mi South 15.0 mph - N/A   Haze
12:48 PM 30.0 °F 21.1 °F 20.1 °F 67% 29.77 in 5.0 mi SSW 10.4 mph 18.4 mph N/A   Haze
1:09 PM 30.7 °F 20.9 °F 20.8 °F 67% 29.75 in 7.0 mi South 12.7 mph 23.0 mph N/A   Mostly Cloudy
1:29 PM 30.2 °F 19.3 °F 20.7 °F 68% 29.75 in 5.0 mi South 15.0 mph 19.6 mph N/A   Haze
1:48 PM 30.2 °F 19.8 °F 21.0 °F 69% 29.75 in 5.0 mi SSW 13.8 mph 20.7 mph N/A   Haze
2:09 PM 30.2 °F 20.8 °F 21.4 °F 70% 29.74 in 5.0 mi South 11.5 mph 18.4 mph N/A   Haze
2:29 PM 29.7 °F 17.8 °F 21.2 °F 71% 29.74 in 5.0 mi South 17.3 mph 21.9 mph N/A   Haze
2:48 PM 29.7 °F 19.6 °F 21.6 °F 72% 29.74 in 5.0 mi South 12.7 mph 20.7 mph N/A   Haze
3:09 PM 29.3 °F 19.1 °F 21.4 °F 72% 29.73 in 5.0 mi South 12.7 mph 19.6 mph N/A   Haze
3:29 PM 28.8 °F 17.9 °F 21.6 °F 74% 29.74 in 4.0 mi South 13.8 mph - N/A   Haze
3:48 PM 28.8 °F 19.5 °F 21.7 °F 75% 29.74 in 5.0 mi South 10.4 mph 19.6 mph N/A   Haze
4:09 PM 28.8 °F 20.2 °F 21.9 °F 76% 29.73 in 5.0 mi South 9.2 mph - N/A   Haze
4:29 PM 28.2 °F 17.7 °F 21.9 °F 77% 29.73 in 4.0 mi South 12.7 mph 16.1 mph N/A   Haze
4:48 PM 28.0 °F 18.1 °F 21.7 °F 77% 29.74 in 4.0 mi South 11.5 mph - N/A   Haze
5:09 PM 28.0 °F 20.0 °F 21.9 °F 78% 29.75 in 4.0 mi South 8.1 mph - N/A   Haze
5:29 PM 27.5 °F 19.3 °F 22.1 °F 80% 29.74 in 4.0 mi SSE 8.1 mph - N/A   Haze
5:48 PM 27.1 °F 17.5 °F 22.1 °F 81% 29.75 in 4.0 mi SSE 10.4 mph - N/A   Haze
6:09 PM 26.6 °F 17.5 °F 21.9 °F 82% 29.75 in 4.0 mi SSE 9.2 mph - N/A   Haze
6:29 PM 26.4 °F 16.0 °F 22.1 °F 84% 29.73 in 3.0 mi SSE 11.5 mph - N/A   Overcast
6:48 PM 26.2 °F 15.8 °F 22.1 °F 84% 29.73 in 5.0 mi SSE 11.5 mph - N/A Snow Light Snow
7:09 PM 26.1 °F 14.5 °F 22.6 °F 87% 29.72 in 5.0 mi SSE 13.8 mph 18.4 mph N/A Snow Light Snow
7:29 PM 25.7 °F 15.1 °F 23.0 °F 89% 29.72 in 4.0 mi SSE 11.5 mph - N/A Snow Light Snow
7:48 PM 25.7 °F 15.7 °F 23.0 °F 89% 29.72 in 4.0 mi South 10.4 mph - N/A Snow Light Snow
8:09 PM 25.5 °F 14.3 °F 23.2 °F 91% 29.69 in 3.0 mi SSE 12.7 mph - N/A Snow Light Snow
8:29 PM 25.5 °F 16.2 °F 23.4 °F 92% 29.68 in 3.0 mi South 9.2 mph - N/A   Overcast
8:48 PM 25.5 °F 15.5 °F 23.4 °F 92% 29.71 in 3.0 mi South 10.4 mph 16.1 mph N/A   Overcast
9:09 PM 25.3 °F 15.3 °F 23.4 °F 92% 29.69 in 3.0 mi South 10.4 mph - N/A   Overcast
9:29 PM 25.3 °F 14.7 °F 23.5 °F 93% 29.68 in 2.5 mi South 11.5 mph - N/A   Overcast
9:48 PM 25.2 °F 15.7 °F 23.7 °F 94% 29.68 in 2.5 mi South 9.2 mph 16.1 mph N/A   Overcast
10:09 PM 25.3 °F 16.0 °F 23.9 °F 94% 29.70 in 2.5 mi SSW 9.2 mph - N/A   Overcast
10:29 PM 25.2 °F 16.5 °F 23.9 °F 95% 29.71 in 2.0 mi SSW 8.1 mph - N/A   Overcast
10:48 PM 25.2 °F 20.9 °F 23.9 °F 95% 29.70 in 2.0 mi South 3.5 mph - N/A   Overcast
11:09 PM 25.2 °F 18.3 °F 23.9 °F 95% 29.69 in 2.5 mi SSE 5.8 mph - N/A   Overcast
11:29 PM 25.2 °F 19.5 °F 23.9 °F 95% 29.70 in 2.0 mi South 4.6 mph - N/A   Overcast
11:48 PM 25.5 °F 17.8 °F 24.1 °F 94% 29.69 in 2.0 mi South 6.9 mph - N/A   Overcast